Time,TemperatureF,DewpointF,PressureIn,WindDirection,WindDirectionDegrees,WindSpeedMPH,WindSpeedGustMPH,Humidity,HourlyPrecipIn,Conditions,Clouds,dailyrainin,SolarRadiationWatts/m^2,SoftwareType,DateUTC
2013-05-09 00:10:00,58.2,56.0,29.93,North,9,5.0,10.0,93,0.04,,,0.00,0,weatherlink.com 1.10,2013-05-09 05:10:00,
2013-05-09 00:25:00,58.1,56.0,29.93,ENE,61,6.0,7.0,92,0.04,,,0.01,0,weatherlink.com 1.10,2013-05-09 05:25:00,
2013-05-09 00:40:00,58.0,56.0,29.93,NNW,348,3.0,10.0,92,0.03,,,0.02,0,weatherlink.com 1.10,2013-05-09 05:40:00,
2013-05-09 00:55:00,58.0,56.0,29.93,North,350,5.0,8.0,92,0.03,,,0.02,0,weatherlink.com 1.10,2013-05-09 05:55:00,
2013-05-09 01:10:00,57.8,55.0,29.92,North,355,8.0,9.0,91,0.03,,,0.03,0,weatherlink.com 1.10,2013-05-09 06:10:00,
2013-05-09 01:25:00,57.8,55.0,29.92,North,350,0.0,9.0,91,0.02,,,0.03,0,weatherlink.com 1.10,2013-05-09 06:25:00,
2013-05-09 01:40:00,57.9,55.0,29.92,NNW,347,0.0,6.0,91,0.01,,,0.03,0,weatherlink.com 1.10,2013-05-09 06:40:00,
2013-05-09 01:55:00,57.8,55.0,29.92,ENE,65,0.0,8.0,90,0.02,,,0.04,0,weatherlink.com 1.10,2013-05-09 06:55:00,
2013-05-09 02:10:00,57.8,55.0,29.92,NE,49,0.0,8.0,89,0.01,,,0.04,0,weatherlink.com 1.10,2013-05-09 07:10:00,
2013-05-09 02:25:00,57.8,54.0,29.92,North,360,0.0,4.0,88,0.01,,,0.04,0,weatherlink.com 1.10,2013-05-09 07:25:00,
2013-05-09 02:40:00,57.6,54.0,29.91,North,351,0.0,5.0,89,0.02,,,0.05,0,weatherlink.com 1.10,2013-05-09 07:40:00,
2013-05-09 02:55:00,57.4,54.0,29.92,North,355,0.0,0.0,89,0.01,,,0.05,0,weatherlink.com 1.10,2013-05-09 07:55:00,
2013-05-09 03:10:00,57.2,54.0,29.91,North,360,0.0,5.0,89,0.01,,,0.05,0,weatherlink.com 1.10,2013-05-09 08:10:00,
2013-05-09 03:25:00,57.1,54.0,29.92,North,355,0.0,4.0,90,0.01,,,0.05,0,weatherlink.com 1.10,2013-05-09 08:25:00,
2013-05-09 03:40:00,56.9,54.0,29.91,North,360,0.0,0.0,90,0.00,,,0.05,0,weatherlink.com 1.10,2013-05-09 08:40:00,
2013-05-09 03:55:00,56.8,54.0,29.91,North,360,0.0,0.0,90,0.00,,,0.05,0,weatherlink.com 1.10,2013-05-09 08:55:00,
2013-05-09 04:10:00,56.6,54.0,29.91,North,360,0.0,0.0,90,0.00,,,0.05,0,weatherlink.com 1.10,2013-05-09 09:10:00,
2013-05-09 04:25:00,56.2,54.0,29.91,North,360,0.0,0.0,91,0.00,,,0.05,0,weatherlink.com 1.10,2013-05-09 09:25:00,
2013-05-09 04:40:00,56.0,54.0,29.91,North,360,0.0,0.0,92,0.00,,,0.05,0,weatherlink.com 1.10,2013-05-09 09:40:00,
2013-05-09 04:55:00,56.0,54.0,29.91,North,360,0.0,0.0,92,0.00,,,0.05,0,weatherlink.com 1.10,2013-05-09 09:55:00,
2013-05-09 05:10:00,56.0,54.0,29.91,North,360,0.0,0.0,92,0.00,,,0.05,0,weatherlink.com 1.10,2013-05-09 10:10:00,
2013-05-09 05:25:00,55.9,54.0,29.92,North,360,0.0,0.0,92,0.00,,,0.05,0,weatherlink.com 1.10,2013-05-09 10:25:00,
2013-05-09 05:40:00,55.9,54.0,29.91,North,360,0.0,0.0,92,0.00,,,0.05,0,weatherlink.com 1.10,2013-05-09 10:40:00,
2013-05-09 05:55:00,56.0,54.0,29.91,North,360,1.0,1.0,91,0.00,,,0.05,0,weatherlink.com 1.10,2013-05-09 10:55:00,
2013-05-09 06:10:00,56.1,54.0,29.91,North,360,0.0,0.0,91,0.00,,,0.05,0,weatherlink.com 1.10,2013-05-09 11:10:00,
2013-05-09 06:25:00,56.3,54.0,29.91,North,360,0.0,4.0,90,0.00,,,0.05,5,weatherlink.com 1.10,2013-05-09 11:25:00,
2013-05-09 06:40:00,56.4,53.0,29.92,North,10,0.0,0.0,89,0.00,,,0.05,7,weatherlink.com 1.10,2013-05-09 11:40:00,
2013-05-09 06:55:00,56.3,53.0,29.92,North,360,0.0,7.0,89,0.00,,,0.05,7,weatherlink.com 1.10,2013-05-09 11:55:00,
2013-05-09 07:25:00,56.5,53.0,29.92,North,355,2.0,6.0,88,0.00,,,0.05,7,weatherlink.com 1.10,2013-05-09 12:25:00,
2013-05-09 07:40:00,56.5,53.0,29.93,North,355,0.0,5.0,88,0.00,,,0.05,9,weatherlink.com 1.10,2013-05-09 12:40:00,
2013-05-09 07:55:00,56.6,53.0,29.93,North,355,0.0,5.0,88,0.00,,,0.05,11,weatherlink.com 1.10,2013-05-09 12:55:00,
2013-05-09 08:10:00,56.7,53.0,29.94,North,355,0.0,6.0,88,0.00,,,0.05,18,weatherlink.com 1.10,2013-05-09 13:10:00,
2013-05-09 08:25:00,56.9,53.0,29.93,NNW,348,0.0,7.0,88,0.00,,,0.05,32,weatherlink.com 1.10,2013-05-09 13:25:00,
2013-05-09 08:40:00,57.0,54.0,29.94,North,355,0.0,7.0,88,0.00,,,0.05,37,weatherlink.com 1.10,2013-05-09 13:40:00,
2013-05-09 08:55:00,57.1,54.0,29.94,North,355,6.0,8.0,88,0.00,,,0.05,60,weatherlink.com 1.10,2013-05-09 13:55:00,
2013-05-09 09:11:00,57.3,54.0,29.94,North,355,3.0,9.0,88,0.00,,,0.05,105,weatherlink.com 1.10,2013-05-09 14:11:00,
2013-05-09 09:26:00,57.5,54.0,29.94,North,360,4.0,7.0,88,0.00,,,0.05,91,weatherlink.com 1.10,2013-05-09 14:26:00,
2013-05-09 09:41:00,57.7,54.0,29.94,North,360,0.0,9.0,87,0.00,,,0.05,134,weatherlink.com 1.10,2013-05-09 14:41:00,
2013-05-09 09:56:00,58.0,54.0,29.93,NNW,340,9.0,9.0,87,0.00,,,0.05,213,weatherlink.com 1.10,2013-05-09 14:56:00,
2013-05-09 10:11:00,58.7,55.0,29.94,NNW,338,8.0,10.0,86,0.00,,,0.05,260,weatherlink.com 1.10,2013-05-09 15:11:00,
2013-05-09 10:26:00,59.0,55.0,29.94,NNW,346,4.0,10.0,85,0.00,,,0.05,290,weatherlink.com 1.10,2013-05-09 15:26:00,
2013-05-09 10:41:00,59.0,54.0,29.94,NE,39,3.0,11.0,84,0.00,,,0.05,271,weatherlink.com 1.10,2013-05-09 15:41:00,
2013-05-09 10:56:00,59.7,55.0,29.95,North,360,4.0,8.0,83,0.00,,,0.05,267,weatherlink.com 1.10,2013-05-09 15:56:00,
2013-05-09 11:11:00,60.1,54.0,29.95,NE,42,0.0,11.0,81,0.00,,,0.05,417,weatherlink.com 1.10,2013-05-09 16:11:00,
2013-05-09 11:26:00,61.0,54.0,29.96,NE,55,6.0,11.0,79,0.00,,,0.05,631,weatherlink.com 1.10,2013-05-09 16:26:00,
2013-05-09 11:41:00,61.8,55.0,29.95,NE,41,0.0,10.0,79,0.00,,,0.05,503,weatherlink.com 1.10,2013-05-09 16:41:00,
2013-05-09 11:56:00,60.9,54.0,29.95,NNE,18,5.0,12.0,79,0.00,,,0.05,378,weatherlink.com 1.10,2013-05-09 16:56:00,
2013-05-09 12:11:00,60.7,54.0,29.96,NE,51,0.0,13.0,79,0.00,,,0.05,325,weatherlink.com 1.10,2013-05-09 17:11:00,
2013-05-09 12:26:00,60.5,54.0,29.96,NNE,14,2.0,13.0,79,0.00,,,0.05,378,weatherlink.com 1.10,2013-05-09 17:26:00,
2013-05-09 12:41:00,59.9,54.0,29.95,North,355,9.0,14.0,81,0.00,,,0.05,322,weatherlink.com 1.10,2013-05-09 17:41:00,
2013-05-09 13:11:00,58.8,54.0,29.96,North,355,6.0,16.0,84,0.00,,,0.05,338,weatherlink.com 1.10,2013-05-09 18:11:00,
2013-05-09 13:26:00,57.7,53.0,29.96,NNW,346,9.0,14.0,84,0.00,,,0.05,396,weatherlink.com 1.10,2013-05-09 18:26:00,
2013-05-09 13:56:00,57.0,53.0,29.97,NNE,27,11.0,16.0,85,0.00,,,0.05,914,weatherlink.com 1.10,2013-05-09 18:56:00,
2013-05-09 14:11:00,56.6,52.0,29.97,NE,46,8.0,16.0,84,0.00,,,0.05,643,weatherlink.com 1.10,2013-05-09 19:11:00,
2013-05-09 14:26:00,55.1,50.0,29.98,North,5,7.0,17.0,84,0.00,,,0.05,396,weatherlink.com 1.10,2013-05-09 19:26:00,
2013-05-09 14:41:00,53.8,50.0,29.98,North,355,8.0,16.0,86,0.00,,,0.05,348,weatherlink.com 1.10,2013-05-09 19:41:00,
2013-05-09 14:56:00,53.7,50.0,29.98,NE,37,6.0,15.0,86,0.00,,,0.05,308,weatherlink.com 1.10,2013-05-09 19:56:00,
2013-05-09 15:11:00,53.9,50.0,29.98,NNE,13,0.0,14.0,86,0.00,,,0.05,338,weatherlink.com 1.10,2013-05-09 20:11:00,
2013-05-09 15:26:00,54.4,50.0,29.98,North,10,3.0,12.0,85,0.00,,,0.05,432,weatherlink.com 1.10,2013-05-09 20:26:00,
2013-05-09 15:41:00,54.7,50.0,29.98,NNW,335,11.0,14.0,83,0.00,,,0.05,243,weatherlink.com 1.10,2013-05-09 20:41:00,
2013-05-09 15:57:00,53.8,49.0,29.98,NNE,12,10.0,16.0,84,0.00,,,0.05,308,weatherlink.com 1.10,2013-05-09 20:57:00,
2013-05-09 16:12:00,53.0,48.0,29.98,NNE,17,10.0,17.0,84,0.00,,,0.05,265,weatherlink.com 1.10,2013-05-09 21:12:00,
2013-05-09 16:27:00,52.8,48.0,29.98,NE,36,7.0,18.0,84,0.00,,,0.05,243,weatherlink.com 1.10,2013-05-09 21:27:00,
2013-05-09 16:42:00,52.9,48.0,29.98,North,355,14.0,17.0,84,0.00,,,0.05,171,weatherlink.com 1.10,2013-05-09 21:42:00,
2013-05-09 16:57:00,52.6,48.0,29.99,North,9,9.0,15.0,84,0.00,,,0.05,105,weatherlink.com 1.10,2013-05-09 21:57:00,
2013-05-09 17:12:00,52.0,47.0,29.99,North,360,7.0,18.0,83,0.00,,,0.05,107,weatherlink.com 1.10,2013-05-09 22:12:00,
2013-05-09 17:27:00,51.6,46.0,29.99,NNW,346,7.0,16.0,82,0.00,,,0.05,141,weatherlink.com 1.10,2013-05-09 22:27:00,
2013-05-09 17:42:00,51.5,47.0,30.00,North,11,6.0,13.0,83,0.00,,,0.05,183,weatherlink.com 1.10,2013-05-09 22:42:00,
2013-05-09 17:57:00,50.6,45.0,30.00,North,360,10.0,15.0,82,0.00,,,0.05,120,weatherlink.com 1.10,2013-05-09 22:57:00,
2013-05-09 18:12:00,50.0,45.0,30.00,NNW,342,11.0,16.0,83,0.00,,,0.05,88,weatherlink.com 1.10,2013-05-09 23:12:00,
2013-05-09 18:27:00,49.4,44.0,30.01,North,5,14.0,16.0,82,0.00,,,0.05,69,weatherlink.com 1.10,2013-05-09 23:27:00,
2013-05-09 18:57:00,49.4,44.0,30.01,North,360,7.0,15.0,82,0.00,,,0.05,88,weatherlink.com 1.10,2013-05-09 23:57:00,
2013-05-09 19:12:00,49.3,44.0,30.02,North,11,1.0,14.0,82,0.00,,,0.05,44,weatherlink.com 1.10,2013-05-10 00:12:00,
2013-05-09 19:28:00,49.2,43.0,30.02,North,360,7.0,14.0,80,0.00,,,0.05,42,weatherlink.com 1.10,2013-05-10 00:28:00,
2013-05-09 19:42:00,49.1,44.0,30.02,NE,44,9.0,15.0,81,0.00,,,0.05,21,weatherlink.com 1.10,2013-05-10 00:42:00,
2013-05-09 19:57:00,48.9,43.0,30.03,NNW,344,11.0,14.0,80,0.00,,,0.05,16,weatherlink.com 1.10,2013-05-10 00:57:00,
2013-05-09 20:12:00,48.8,43.0,30.03,North,360,5.0,14.0,80,0.00,,,0.05,7,weatherlink.com 1.10,2013-05-10 01:12:00,
2013-05-09 20:27:00,48.6,43.0,30.04,North,9,1.0,13.0,80,0.00,,,0.05,0,weatherlink.com 1.10,2013-05-10 01:27:00,
2013-05-09 20:42:00,48.3,42.0,30.04,NNW,346,4.0,14.0,78,0.00,,,0.05,0,weatherlink.com 1.10,2013-05-10 01:42:00,
2013-05-09 20:57:00,48.0,41.0,30.05,NNW,347,8.0,13.0,77,0.00,,,0.05,0,weatherlink.com 1.10,2013-05-10 01:57:00,
2013-05-09 21:12:00,47.9,40.0,30.04,North,349,10.0,16.0,75,0.00,,,0.05,0,weatherlink.com 1.10,2013-05-10 02:12:00,
2013-05-09 21:27:00,47.7,39.0,30.05,NNW,334,5.0,13.0,73,0.00,,,0.05,0,weatherlink.com 1.10,2013-05-10 02:27:00,
2013-05-09 21:42:00,47.6,38.0,30.05,North,355,8.0,15.0,70,0.00,,,0.05,0,weatherlink.com 1.10,2013-05-10 02:42:00,
2013-05-09 21:57:00,47.4,38.0,30.06,North,5,0.0,12.0,70,0.00,,,0.05,0,weatherlink.com 1.10,2013-05-10 02:57:00,
2013-05-09 22:13:00,46.8,36.0,30.06,NNW,348,8.0,15.0,66,0.00,,,0.05,0,weatherlink.com 1.10,2013-05-10 03:13:00,
2013-05-09 22:28:00,46.5,36.0,30.06,North,360,5.0,10.0,68,0.00,,,0.05,0,weatherlink.com 1.10,2013-05-10 03:28:00,
2013-05-09 22:43:00,45.9,35.0,30.07,North,351,7.0,11.0,67,0.00,,,0.05,0,weatherlink.com 1.10,2013-05-10 03:43:00,
2013-05-09 22:58:00,45.4,35.0,30.07,North,355,8.0,10.0,67,0.00,,,0.05,0,weatherlink.com 1.10,2013-05-10 03:58:00,
2013-05-09 23:13:00,45.0,35.0,30.07,North,360,7.0,10.0,67,0.00,,,0.05,0,weatherlink.com 1.10,2013-05-10 04:13:00,
2013-05-09 23:28:00,44.4,34.0,30.07,North,360,1.0,8.0,67,0.00,,,0.05,0,weatherlink.com 1.10,2013-05-10 04:28:00,
2013-05-09 23:43:00,44.0,34.0,30.07,North,360,0.0,9.0,67,0.00,,,0.05,0,weatherlink.com 1.10,2013-05-10 04:43:00,
2013-05-09 23:58:00,43.8,33.0,30.07,NE,37,0.0,9.0,66,0.00,,,0.05,0,weatherlink.com 1.10,2013-05-10 04:58:00,